www.pogodaiklimat.ru

Погода и климат >> Архив погоды >> Россия >> Якутия >> Томпо


ПОГОДА в Томпо

  • Прогноз погоды в Томпо
  • Монитор погоды в Томпо
  • Климат города

АРХИВ ПОГОДЫ в Томпо

Время (UTC), дата Ветер
(напр.,м/с)
 
Видим.   Явления Облачность Т
(С)
Тd
(С)
f
(%)
Тe
(С)
Тes
(С)
Комфортность P
(гПа)
Po
(гПа)
Тmin
(С)
Tmax
(С)
R
(мм)
R24
(мм)
S
(см)
00 12.12 штиль 0 50 км ясно -48.9 -51.8 71 -49 -49 опасность
обморожения
1037.0 975.6 -49.0
03 12.12 штиль 0 50 км ясно -48.3 -50.6 77 -48 -48 опасность
обморожения
1036.8 975.6
06 12.12 штиль 0 50 км ясно -47.6 -50.6 71 -48 -48 опасность
обморожения
1036.6 975.4
09 12.12 штиль 0 10 км слабый снег 8/0
[Ac As Cs]
-46.4 -48.6 78 -46 -46 опасность
обморожения
1035.9 975.3 -46.4 0.0
12 12.12 штиль 0 20 км слабый снег 8/0
[Ac As Cs]
-45.8 -48.6 73 -46 -46 опасность
обморожения
1035.8 975.2
15 12.12 штиль 0 10 км слабый снег 8/0
[Ac As Cs]
-44.5 -47.0 76 -45 -45 опасность
обморожения
1034.6 974.4
18 12.12 штиль 0 10 км слабый снег 8/0
[Ac As Cs]
-42.4 -45.0 75 -42 -42 опасность
обморожения
1032.8 973.4
21 12.12 штиль 0 20 км слабый снег 6/0
[Ac As Cs]
-41.4 -44.4 72 -41 -41 опасность
обморожения
1032.2 973.1 -46.4 0.2 25
00 13.12 штиль 0 50 км {снег} 6/0
[Ac trans Cs]
-41.1 -43.8 75 -41 -41 опасность
обморожения
1031.8 972.8
03 13.12 штиль 0 50 км 4/0
[Cs]
-42.0 -45.0 72 -42 -42 опасность
обморожения
1031.6 972.3
06 13.12 штиль 0 50 км 4/0
[Ci fib]
-43.0 -45.6 75 -43 -43 опасность
обморожения
1031.0 971.5
09 13.12 штиль 0 50 км 3/0
[Ci fib]
-44.4 -47.0 75 -44 -44 опасность
обморожения
1031.0 971.2 -41.1 0.0
12 13.12 СЗ 1 50 км 6/0
[Cs]
-43.5 -46.3 74 -49 -49 опасность
обморожения
1030.4 970.7
15 13.12 СЗ 1 50 км 6/0
[Cs]
-43.8 -46.3 76 -49 -49 опасность
обморожения
1029.1 969.4
18 13.12 штиль 0 50 км 3/0
[Ci fib]
-44.9 -47.8 72 -45 -45 опасность
обморожения
1028.1 968.3
21 13.12 штиль 0 50 км ясно -46.5 -49.6 70 -47 -47 опасность
обморожения
1028.1 967.7 -46.5 25
00 14.12 штиль 0 50 км ясно -47.8 -50.6 73 -48 -48 опасность
обморожения
1027.6 967.0 -48.0
03 14.12 штиль 0 50 км 4/0
[Ac trans]
-47.0 -49.6 74 -47 -47 опасность
обморожения
1025.8 965.6
06 14.12 штиль 0 50 км 10/0
[Ac As]
-44.0 -47.0 72 -44 -44 опасность
обморожения
1023.9 964.6
09 14.12 штиль 0 50 км 10/0
[Ac As]
-41.6 -44.4 74 -42 -42 опасность
обморожения
1022.5 963.7 -41.6
12 14.12 штиль 0 50 км 10/0
[Ac As]
-40.0 -42.8 74 -40 -40 опасность
обморожения
1021.4 963.1
15 14.12 штиль 0 50 км 6/0
[Ac trans]
-40.2 -42.8 76 -40 -40 опасность
обморожения
1020.4 962.2
18 14.12 штиль 0 50 км ясно -42.2 -45.0 74 -42 -42 опасность
обморожения
1020.3 961.6
21 14.12 штиль 0 50 км 3/0
[Ci fib]
-44.1 -47.0 73 -44 -44 опасность
обморожения
1020.2 961.0 -44.3 25
00 15.12 штиль 0 50 км 4/0
[Ci fib]
-43.9 -46.3 77 -44 -44 опасность
обморожения
1020.2 961.0 -44.6
03 15.12 штиль 0 50 км 8/0
[Cs]
-43.1 -45.6 76 -43 -43 опасность
обморожения
1019.4 960.6
06 15.12 штиль 0 50 км 6/0
[Ac trans Ci fib]
-43.0 -45.6 75 -43 -43 опасность
обморожения
1019.1 960.3
09 15.12 штиль 0 50 км 6/0
[Ac trans Ci fib]
-42.3 -45.0 75 -42 -42 опасность
обморожения
1019.0 960.5
12 15.12 штиль 0 10 км слабый снег 9/0
[Ac As]
-40.4 -43.3 73 -40 -40 опасность
обморожения
1018.0 960.0
15 15.12 штиль 0 10 км слабый снег 10/0
[As op]
-38.7 -40.8 80 -39 -39 опасность
обморожения
1017.5 959.7
18 15.12 штиль 0 10 км слабый снег 10/0
[As op]
-36.7 -38.8 81 -37 -37 опасность
обморожения
1015.8 958.6
21 15.12 штиль 0 10 км слабый снег 8/0
[Ac As]
-35.5 -37.7 80 -36 -36 опасность
обморожения
1014.7 957.8 -42.3 0.4 25
00 16.12 штиль 0 10 км слабый снег 10/0
[Ac As Cs]
-35.1 -37.4 79 -35 -35 опасность
обморожения
1014.4 957.7
03 16.12 штиль 0 10 км слабый снег 10/0
[Ac As Cs]
-32.5 -34.8 80 -33 -33 опасность
обморожения
1013.0 956.9
06 16.12 штиль 0 10 км слабый снег 10/0
[Ac As Cs]
-32.4 -34.8 79 -32 -32 опасность
обморожения
1012.5 956.7
09 16.12 штиль 0 50 км {снег} 3/0
[Ci fib]
-34.7 -37.1 79 -35 -35 опасность
обморожения
1013.4 956.9 -32.1 0.3
12 16.12 штиль 0 50 км {снег} 8/0
[Cs]
-36.4 -38.8 78 -36 -36 опасность
обморожения
1014.0 957.1
15 16.12 штиль 0 50 км 8/0
[Ac trans Cs]
-37.3 -39.5 80 -37 -37 опасность
обморожения
1013.9 956.9
18 16.12 штиль 0 50 км 8/0
[Ac trans Cs]
-35.3 -37.7 79 -35 -35 опасность
обморожения
1013.2 956.7
21 16.12 штиль 0 50 км 6/0
[Ci fib]
-35.1 -37.4 79 -35 -35 опасность
обморожения
1013.3 956.8 -37.5 25
00 17.12 штиль 0 50 км 8/0
[Ac trans Ci fib]
-35.0 -37.4 79 -35 -35 опасность
обморожения
1013.4 956.9
03 17.12 штиль 0 50 км 10/0
[Ac trans Cs]
-35.0 -37.7 76 -35 -35 опасность
обморожения
1013.6 956.8
06 17.12 штиль 0 50 км 10/0
[Cs]
-34.5 -36.8 79 -35 -35 опасность
обморожения
1012.9 956.4
09 17.12 штиль 0 50 км 10/0
[Cs]
-34.4 -36.8 79 -34 -34 опасность
обморожения
1013.4 957.0 -34.4
12 17.12 штиль 0 50 км 10/0
[Cs]
-34.7 -37.1 79 -35 -35 опасность
обморожения
1013.9 957.2
15 17.12 штиль 0 50 км 10/0
[Cs]
-35.1 -37.4 79 -35 -35 опасность
обморожения
1013.2 956.7
18 17.12 штиль 0 50 км 10/0
[Cs]
-35.8 -38.1 79 -36 -36 опасность
обморожения
1013.6 956.8
21 17.12 штиль 0 50 км 10/0
[Cs]
-35.5 -37.7 80 -36 -36 опасность
обморожения
1013.1 956.3 -35.8 25
00 18.12 штиль 0 50 км 8/0
[Cs]
-37.1 -39.5 78 -37 -37 опасность
обморожения
1013.4 956.4 -37.2
03 18.12 штиль 0 50 км 8/0
[Cs]
-37.6 -39.9 79 -38 -38 опасность
обморожения
1013.1 955.8
06 18.12 штиль 0 50 км 6/0
[Cs]
-38.0 -40.3 79 -38 -38 опасность
обморожения
1013.2 955.9
09 18.12 СЗ 1 50 км 4/0
[Ci fib]
-39.1 -41.2 80 -44 -44 опасность
обморожения
1014.0 956.5 -35.3
12 18.12 штиль 0 50 км 3/0
[Ci fib]
-40.3 -42.7 78 -40 -40 опасность
обморожения
1015.0 957.1
15 18.12 штиль 0 50 км 3/0
[Ci fib]
-40.7 -42.7 81 -41 -41 опасность
обморожения
1015.5 957.3
18 18.12 штиль 0 50 км 3/0
[Ci fib]
-41.3 -43.2 82 -41 -41 опасность
обморожения
1015.8 957.6

 

Местоположение метеостанции Томпо (Якутия, Россия): широта 63.95 долгота 135.80 высота над уровнем моря 402 м.

В архиве по умолчанию представлена погода в Томпо за последнюю неделю. Архивные данные за месяц целиком и за предыдущие месяцы, начиная с января 2011 года, Вы можете получить, выбрав интересующий диапазон дат из раскрывающегося списка и нажав кнопку "Ввод!".


*Определитесь, кто Вы:
робот инопланетянин человек

Внимание! Время в таблицах - всемирное. Для получения местного времени необходимо прибавить поправку, которая в Томпо равна 9 ч.

Смотрите также архив погоды в соседних городах и на ближайших метеорологических станциях:

Погода в Теплом Ключе (Якутия, Россия) (139 км)
Погода в Крест-Хальджае (Якутия, Россия) (144 км)
Погода в Иэме (Якутия, Россия) (150 км)
Погода в Верхоянском Перевозе (Якутия, Россия) (200 км)
Погода в Восточной (Якутия, Россия) (204 км)
Погода в Ытык-Кюёле (Якутия, Россия) (210 км)
Погода в Охотском Перевозе (Якутия, Россия) (232 км)
Погода в Чурапче (Якутия, Россия) (268 км)
Погода в Сеген-Кюели (Якутия, Россия) (268 км)
Погода в Юртах (Якутия, Россия) (293 км)

Пояснения к столбцам:

Ветер - указаны скорость ветра в м/с - средняя за 10 мин, порывы в срок и между сроками (в фигурных скобках) и направление, откуда дует ветер: С - северный, СВ - северо-восточный, В - восточный, ЮВ - юго-восточный, Ю - южный, ЮЗ - юго-западный, З - западный, СЗ - северо-западный.
Видимость - горизонтальная дальность видимости в метрах или километрах. При видимости от 1 до 10 км при отсутствии осадков обычно наблюдается дымка, при ухудшении видимости до 1 км и менее - туман. В сухую погоду видимость может ухудшаться дымом, пылью или мглою.
Явления - указаны атмосферные явления, наблюдавшиеся в срок или в последний час перед сроком; фигурными скобками обозначены явления, наблюдавшиеся между сроками (за 1-3 часа до срока); квадратными скобками обозначены град или гололедные отложения с указанием их диаметра в мм.
Облачность - указаны через наклонную черту общая и нижняя облачность в баллах и высота нижней границы облаков в метрах; квадратными скобками обозначены формы облаков: Ci - перистые, Cs - перисто-слоистые, Cc - перисто-кучевые, Ac - высококучевые, As - высокослоистые, Sc - слоисто-кучевые, Ns - слоисто-дождевые, Cu - кучевые, Cb - кучево-дождевые. Подробнее классификацию облаков см. в Атласе облаков (PDF).
T - Температура воздуха - температура, измеренная на высоте 2 м над землей.
Td - Температура точки росы - температура, при понижении до которой содержащийся в воздухе водяной пар достигнет насыщения.
f - Относительная влажность воздуха - влажноcть воздуха, измеренная на высоте 2 м над землей.
Te - Эффективная температура - температура, которую ощущает одетый по сезону человек в тени. Характеристика душности погоды. При расчете учитывается влияние влажности воздуха и скорости ветра на теплоощущения человека.
Tes - Эффективная температура на солнце - температура, которую ощущает человек, с поправкой на солнечный нагрев. Характеристика знойности погоды. Зависит от высоты солнца над горизонтом, облачности и скорости ветра. Ночью, в пасмурную погоду, а также при ветре 12 м/с и более поправка равна нулю.
P - Атмосферное давление - приведенное к уровню моря атмосферное давление.
Po - Атмосферное давление - измеренное на уровне метеостанции атмосферное давление.
Tmin - Минимальная температура - минимум температуры воздуха на высоте 2 м над землей.
Tmax - Максимальная температура - максимум температуры воздуха на высоте 2 м над землей.
R - Количество осадков - Количество выпавших осадков за период времени, мм. При наведении курсора мыши на число - период времени, за который выпало указанное количество осадков.
R24 - Количество осадков - Количество выпавших осадков за 24 часа, мм.
S - Снежный покров - Высота снежного покрова, см. При наведении курсора мыши на число - состояние снежного покрова и степень покрытия местности в баллах.